Simultaneous Nadir Overpasses (SNOs) Predictions

Prediction of SNOs over PacNW region [( 10.00, 139.50) to ( 22.70, 165.60)] between AQUA and NPP Satellites:

Table of predicted SNOs over PacNW region for the next 30.0 days since TLE Epoch: 11/25/2017
Index Date (AQUA) Time (AQUA) AQUA Lat,Lon Date (NPP) Time (NPP) NPP Lat,Lon Distance(km) Time Diff (sec)
1 12/02/2017 15:09:51 22.58, 159.84 12/02/2017 15:11:30 23.19, 157.14 284.48 99
2 12/05/2017 03:31:41 22.69, 147.51 12/05/2017 03:28:11 24.21, 145.29 282.99 210
3 12/10/2017 15:59:16 22.63, 147.50 12/10/2017 16:02:10 23.29, 144.48 317.84 174
4 12/18/2017 15:09:48 22.59, 159.87 12/18/2017 15:11:23 23.19, 157.14 286.92 95
5 12/21/2017 03:31:36 22.65, 147.56 12/21/2017 03:28:07 24.44, 145.24 309.15 209




NCC Satellite Simultaneous Nadir Overpasses (SNOs) Prediction Service
